星链-35099(STARLINK-35099)

导读

STARLINK-35099是美国星链计划中的低轨互联网卫星,于2025年9月25日发射入轨,属于SpaceX公司打造的星链卫星星座网络一员。星链通过大规模部署低轨卫星,旨在实现全球范围内高速卫星互联网覆盖,为地面偏远地区、海事航空等场景提供网络接入服务,该卫星的入轨进一步扩充了星链星座的服务能力。

Basic Information
目录编号:
65735
目录名称:
STARLINK-35099
国际标识:
2025-216B
轨道中心:
EARTH
卫星名称:
星链-35099
卫星全名:
星链-35099(STARLINK-35099)
卫星状态:
在轨 (已飞行352 天)
发射日期:
2025-09-25 UTC
国别 :
美国 (US)
星等 :
--
This satellite is enrolled in the Space Conjunction Data Service (SCDS) and the current flight risk assessment level is: High Risk
Orbit Information
数据来源 国际轨道数据
星历时间: 2026-09-12T12:06:00+0800
4小时前
查看轨道信息
半长轴: 6840.812km
偏心率: 0.000108
轨道倾角: 53.159°
近地点辐角 88.574°
升交点赤经 184.655°
平近点角 271.539°
近地点: 461.936km
远地点: 463.414km
周期: 93.847分钟
每日圈数: 15.344097
Detailed Information
固有亮度:
5
最大亮度:
2.5
卫星平台:
Starlink V1.0
覆盖范围:
全球
运营商:
太空探索技术公司
运营商所在国:
美国
制造商(研发单位):
太空探索技术公司
制造商所在国:
美国
使用方式:
暂无
Satellite Introduction
Starlink 计划是 SpaceX 推出的全球卫星互联网项目,通过发射低轨道卫星,为全球尤其是偏远地区提供高速、低延迟的互联网服务。自 2019 年起,Starlink 已部署数千颗卫星,旨在缩小全球数字鸿沟,推动互联网普及。该项目还为军事、航空等行业提供通信支持,带来广泛经济效益。
2D Orbit Map
3D Orbit Map
Orbit Altitude Analysis Chart
Orbit Inclination Analysis Chart
Orbit Comprehensive Analysis Chart
View Comprehensive Chart
Conjunction Data List
Event ID Objects TCA Miss Dist (km) Collision Risk Probability Collision Risk Index (CRI) Action
CDM_260914-023905-189406-573521
2026-09-14T
02:39:36+0000
0.371 km
远距离
2.000109E-4 高风险 0.81
CDM_260912-235505-362006-573521
2026-09-12T
23:55:01+0000
0.698 km
远距离
5.548044E-5 中风险 0.7
CDM_260914-015506-421206-573521
2026-09-14T
01:55:00+0000
0.693 km
远距离
5.235447E-5 中风险 0.69
CDM_260913-211105-189406-573521
2026-09-13T
21:11:20+0000
0.741 km
远距离
3.187346E-5 中风险 0.65
CDM_260914-032806-421206-573521
2026-09-14T
03:28:47+0000
0.863 km
远距离
2.596845E-5 中风险 0.63
CDM_260913-113805-362006-573521
2026-09-13T
11:38:28+0000
1.052 km
极远距离
1.433331E-5 中风险 0.58
CDM_260914-102605-181206-573521
2026-09-14T
10:26:35+0000
1.061 km
极远距离
5.659522E-6 低风险 0.5
CDM_260913-131205-362006-573521
2026-09-13T
13:12:15+0000
1.650 km
极远距离
3.209964E-6 低风险 0.45
CDM_260912-222105-362006-573521
2026-09-12T
22:21:13+0000
1.948 km
极远距离
2.028099E-6 低风险 0.41
CDM_260910-032905-302506-573521
2026-09-10T
03:29:30+0000
2.369 km
极远距离
1.656031E-6 低风险 0.39
Miss Distance Evolution Trend with All Objects
Collision Probability Evolution Trend with All Objects